Location: North Evanston
(42.0634°N, 87.6976°W)
Time: 20:47:49
(UTC+00:00)

Vanguard 2 Rocket - Pass Details

Date: 18 May 2026
Orbit: 553 x 3286 km, 32.9° (Epoch: 6 June)

Event Time Altitude Azimuth Distance (km) Brightness Sun altitude
Rises 16:28:21 0° 243° (WSW) 4,857 10.5 62.1°
Reaches altitude 10° 16:31:07 10° 238° (WSW) 4,174 10.4 62.4°
Maximum altitude 16:42:57 56° 164° (SSE) 2,928 11.7 63.8°
Drops below altitude 10° 17:01:10 10° 94° (E) 6,177 11.5 65.6°
Sets 17:06:19 0° 91° (E) 7,262 11.6 66.0°
